Terug naar catalogus

OPS 4682

SNAPSHOT

ActiefWetenschapPO
NORAD 1314·PAYLOAD·🇺🇸 United States

Gelanceerd Apr 3, 1965 vanaf Vandenberg Space Force Base

Loading…

Volgende Passages (komende 24 uur)

TLE

VersSource: Space-Track

Epoch: Sep 14, 2026, 14:44 UTC

1 01314U 65027A   26257.61429998  .00000045  00000-0  13992-3 0  9995
2 01314  90.2488   8.2059 0031762  59.7253 311.4442 12.91806390642578

Volg OPS 4682 in realtime met AllMySat

Download on the App Store